Content
SEND FEEDBACK

Daily
Averages
Monthly
Summary
United States of America

MISSION, SOUTH DAKOTA


Home > North America > United States > South Dakota
Elevation: 2806 feet     Latitude: 43 07N     Longitude: 100 37W

WEATHER
 
SELECT A DAY
Number of Records: 218,488;   Date Range: 1/1/95 - 7/29/14
 
SHARE

PRINT THIS DATA

[ ← Previous Day ]
WEATHER ALMANAC - JANUARY 31, 2013
[ Next Day → ]
[ °C ]   °F
Weather ElementAverageHighLow
Temperature3.8 °F9 °F (1:52 am)-2.9 °F (6:52 pm)
Dewpoint-4.1 °F5 °F (1:52 am)-11 °F (9:52 am)
Humidity70.3 %85 % (2:29 am)58 % (2:52 pm)
Barometer30.25 in30.46 in (11:52 am)29.92 in (2:29 am)
Wind Speed12.4 mph24.2 mph (7:43 am)
Wind Gust32.2 mph (6:52 am)
Weather ElementAverage
Visibility8.9 mi
Wind DirectionWNW (288.3 °)

Weather ElementTotal
Precipitation---
Heating Degree Days62 (Base 65)
Averaged from 30 records on January 31, 2013
WEATHER CONDITIONS BREAKOUT
WIND DIRECTION BREAKOUT
WEATHER BY HOUR - JANUARY 31, 2013
[ °C ]   °F
Local TimeTemperatureDewpointHumidityBarometerVisibilityWind DirectionWind SpeedGust SpeedPrecipitationEventsConditions
1:52 AM9.0 °F5.0 °F84 %30.05 in5.0 miWNW (300°)3.5 mphOvercast
2:29 AM6.8 °F3.2 °F85 %29.92 in7.0 miWNW (300°)3.5 mphOvercast
2:52 AM7.0 °F3.0 °F84 %30.08 in5.0 miNW (320°)3.5 mph0.00 inSnowLight Snow
3:42 AM8.6 °F3.2 °F79 %29.94 in8.0 miNNW (330°)13.8 mph19.6 mph0.00 inOvercast
3:52 AM9.0 °F3.0 °F77 %30.09 in6.0 miNNW (340°)11.5 mph0.00 inHaze
4:28 AM8.6 °F3.2 °F79 %29.97 in4.0 miNorth (350°)10.4 mph0.00 inSnowLight Snow
4:47 AM6.8 °F1.4 °F79 %29.98 in10.0 miNorth (360°)10.4 mph0.00 inOvercast
4:52 AM7.0 °F1.0 °F77 %30.12 in10.0 miNNW (340°)9.2 mph0.00 inOvercast
5:52 AM5.0 °F-0.9 °F76 %30.16 in10.0 miNNW (340°)17.3 mph24.2 mphOvercast
6:52 AM5.0 °F-2.0 °F73 %30.21 in9.0 miNNW (340°)23.0 mph32.2 mphOvercast
7:15 AM3.2 °F-4.0 °F72 %30.08 in10.0 miNNW (340°)18.4 mph29.9 mphOvercast
7:43 AM3.2 °F-4.0 °F72 %30.11 in9.0 miNNW (340°)24.2 mph29.9 mphMostly Cloudy
7:52 AM1.9 °F-5.1 °F72 %30.28 in10.0 miNorth (350°)17.3 mph31.1 mphMostly Cloudy
8:15 AM1.4 °F-7.6 °F66 %30.13 in8.0 miNNW (330°)19.6 mph28.8 mphOvercast
8:52 AM0.0 °F-8.0 °F69 %30.34 in6.0 miNNW (330°)18.4 mph27.6 mphHaze
9:16 AM-0.4 °F-9.4 °F66 %30.18 in10.0 miNNW (330°)24.2 mph32.2 mphScattered Clouds
9:52 AM-0.9 °F-11.0 °F62 %30.39 in10.0 miNNW (330°)23.0 mph31.1 mphPartly Cloudy
10:52 AM0.0 °F-11.0 °F60 %30.42 in10.0 miNW (320°)24.2 mph31.1 mphClear
11:52 AM0.0 °F-11.0 °F60 %30.46 in10.0 miNNW (340°)19.6 mph25.3 mphClear
12:52 PM1.0 °F-9.9 °F60 %30.44 in10.0 miNNW (330°)20.7 mph27.6 mphClear
2:52 PM3.9 °F-8.0 °F58 %30.41 in10.0 miNW (310°)11.5 mphClear
3:52 PM5.0 °F-7.1 °F58 %30.42 in10.0 miNW (310°)9.2 mphClear
4:52 PM3.9 °F-7.1 °F60 %30.41 in10.0 miWest (270°)9.2 mphMostly Cloudy
5:52 PM1.0 °F-8.0 °F66 %30.42 in10.0 miWest (280°)5.8 mphClear
6:52 PM-2.9 °F-9.9 °F72 %30.43 in10.0 miWSW (240°)4.6 mphMostly Cloudy
7:52 PM0.0 °F-8.0 °F69 %30.41 in10.0 miCalmMostly Cloudy
8:52 PM1.9 °F-6.0 °F69 %30.41 in10.0 miCalmOvercast
9:52 PM3.9 °F-4.0 °F70 %30.40 in10.0 miSSW (210°)5.8 mphOvercast
10:52 PM6.1 °F-2.0 °F69 %30.40 in10.0 miSouth (180°)4.6 mphOvercast
11:52 PM8.1 °F-0.9 °F67 %30.36 in10.0 miSouth (190°)5.8 mphOvercast
Hourly data recorded from KVTN, located miles away from Mission, South Dakota







STORIES FROM OUR PARTNERS